Regional Weather Roundup
Issued by NWS Bismarck, ND

Home | Current Version | Previous Version | Text Only | Print | Product List | Glossary On
Versions: 1 2 3 4 5 6 7 8 9 10 11 12 13 14 15 16 17 18 19 20 21 22 23 24 25 26 27 28 29 30 31 32 33 34 35 36 37 38 39 40 41 42 43 44 45 46 47 48 49 50
000
ASUS43 KBIS 221659
RWRBIS

NWR BROADCAST TEXT
NATIONAL WEATHER SERVICE BISMARCK ND
1200 PM CDT MON SEP 22 2014

NOTE: "FAIR" INDICATES FEW OR NO CLOUDS BELOW 12,000 FEET WITH NO
SIGNIFICANT WEATHER AND/OR OBSTRUCTIONS TO VISIBILITY.


CITY           SKY/WX    TMP DP  RH WIND       PRES   REMARKS
WILLISTON      SUNNY     69  43  38 S6        29.99F
MINOT          SUNNY     74  41  30 SE15      30.04F
MINOT AFB      NOT AVBL
BISMARCK       SUNNY     72  47  40 SE15      30.08F
DICKINSON      NOT AVBL
GARRISON         N/A     68  48  48 S7        30.06F
HETTINGER ARPT MOSUNNY   67  42  40 SE16      30.04F
JAMESTOWN      NOT AVBL
CARRINGTON     FAIR      73  45  35 MISG      30.12F
HARVEY         FAIR      73  41  31 S12       30.08F
HAZEN          FAIR      68  46  45 S10       30.05F
LINTON         FAIR      72  48  43 SE17      30.09F
MANDAN         FAIR      72  45  37 S16       30.08F
OAKES            N/A     68  50  52 S14       30.16F
RUGBY          FAIR      72  46  40 SW12      30.08F
WATFORD CITY   FAIR      68  43  40 SE10      29.99F
$$

CITY           SKY/WX    TMP DP  RH WIND       PRES   REMARKS
GRAND FORKS    SUNNY     72  50  45 SW10      30.12F
GRAND FORKS AF NOT AVBL
DEVILS LAKE    SUNNY     68  46  45 SW8       30.09F
FARGO          SUNNY     69  50  50 SW10      30.16F
CAVALIER       FAIR      72  48  43 W7        30.08F
GRAFTON        FAIR      72  50  46 SW8       30.10F
GWINNER        SUNNY     70  48  46 SW12      30.18F
LANGDON        FAIR      72  46  40 SW13      30.10F
$$

CITY           SKY/WX    TMP DP  RH WIND       PRES   REMARKS
ABERDEEN       SUNNY     70  48  45 S10       30.17F
MOBRIDGE       SUNNY    N/A N/A N/A S16       30.08F
RAPID CITY     SUNNY     69  45  41 S20       30.03F
GLASGOW        SUNNY     66  41  40 SE15      29.93S
SIDNEY         SUNNY     70  45  40 E5        29.99F
WOLF POINT     SUNNY     67  44  43 E8        29.95F
GLENDIVE       SUNNY     66  43  42 E5        29.98F
MILES CITY     MOSUNNY   67  44  43 S9        29.94F
BAKER          MOSUNNY   72  44  36 SE14      29.99F
$$

CITY           SKY/WX    TMP DP  RH WIND       PRES   REMARKS
BILLINGS       PTSUNNY   68  49  50 SW10      29.98S
GREAT FALLS    MOSUNNY   72  47  40 SW16      29.93F
$$




USA.gov is the U.S. government's official web portal to all federal, state and local government web resources and services.